{"data":{"norad_id":53048,"intl_designator":"2022-077F","name":"STARLINK-4355","alt_names":[],"object_type":"PAYLOAD","status":"ACTIVE","operator":null,"country":"US","launch_date":"2022-07-11","launch_site_code":"AFWTR","launch_vehicle":null,"mission":null,"orbit_class":"UNKNOWN","rcs_meters":null,"size_class":null,"mass_kg":null,"dimensions":null,"purposes":["comms"],"wikipedia_slug":null,"has_3d_model":false,"image_url":null,"decayed_at":null,"tle_current":{"epoch":"2026-05-25T01:53:07.637568Z","epoch_age_seconds":62252,"freshness":"FRESH","line1":"1 53048U 22077F   26145.07856062  .00005930  00000+0  41507-3 0  9996","line2":"2 53048  97.4472 326.1598 0000955 112.4630 247.6698 15.05616404212475","mean_motion":15.05616404,"eccentricity":9.55e-5,"inclination_deg":97.4472,"raan_deg":326.1598,"arg_perigee_deg":112.463,"mean_anomaly_deg":247.6698,"bstar":0.00041507,"rev_number":21247,"period_min":95.641891000545,"perigee_km":548.95260811419,"apogee_km":550.27580859499,"semimajor_km":6927.7512083546,"source":"CELESTRAK","updated_at":"2026-05-25T13:38:17.286333Z"}}}